Probability
0 0 0 0 0 0 0 0 0 0 0 0 0 0 0 0 0 0 0 0 0 0 0 0 0 0 0 0 0 0 0 0 0 0 0 0 0 0 0 0 0 0 0
0 0 0 0 0 0 0 0 0 0 0 0 0 0 0 0 0 0 0 0 0 0 0 0 0 0 0 0 0 0 0 0 0 0 0 0 0 0 0 0 0 0 0
0 0 0 0 0 0 0 0 0 0 0 0 0 0 0 0 0 0 0 0 0 0 0 0 0 0 0 0 0 0 0 0 0 0 0 0 0 0 0 0 0 0 0
0 0 0 0 0 0 0 0 0 0 0 0 0 0 0 0 0 0 0 0 0 0 0 0 0 0 0 0 0 0 0 0 0 0 0 0 0 0 0 0 0 0 0
0 0 0 0 0 0 0 0 0 0 0 0 0 0 0 0 0 0 0 0 0 0 0 0 0 0 0 0 0 0 0 0 0 0 0 0 0 0 0 0 0 0 0
0 0 0 0 0 0 0 0 0 0 0 0 0 0 0 0 0 0 0 0 0 0 0 0 0 0 0 0 0 0 0 0 0 0 0 0 0 0 0 0 0 0 0
0 0 0 0 0 0 0 0 0 0 0 0 0 0 0 0 0 0 0 0 0 0 0 0 0 0 0 0 0 0 0 0 0 0 0 0 0 0 0 0 0 0 0
0 0 0 0 0 0 0 0 0 0 0 0 0 0 0 0 0 0 0 0 0 0 0 0 0 0 0 0 0 0 0 0 0 0 0 0 0 0 0 0 0 0 0
0 0 0 0 0 0 0 0 0 0 0 0 0 0 0 0 0 0 0 0 0 0 0 0 0 0 0 0 0 0 0 0 0 0 0 0 0 0 0 0 0 0 0
0 0 0 0 0 0 0 0 0 0 0 0 0 0 0 0 0 0 0 0 0 0 0 0 0 0 0 0 0 0 0 0 0 0 0 0 0 0 0 0 0 0 0
0 0 0 0 0 0 0 0 0 0 0 0 0 0 0 0 0 0 0 0 0 0 0 0 0 0 0 0 0 0 0 0 0 0 0 0 0 0 0 0 0 0 0
0 0 0 0 0 0 0 0 0 0 0 0 0 0 0 0 0 0 0 0 0 0 0 0 0 0 0 0 0 0 0 0 0 0 0 0 0 0 0 0 0 0 0
0 0 0 0 0 0 0 0 0 0 0 0 0 0 0 0 0 0 0 0 0 0 0 0 0 0 0 0 0 0 0 0 0 0 0 0 0 0 0 0 0 0 0
0 0 0 0 0 0 0 0 0 0 0 0 0 0 0 0 0 0 0 0 0 0 0 0 0 0 0 0 0 0 0 0 0 0 0 0 0 0 0 0 0 0 0
0 0 0 0 0 0 0 0 0 0 0 0 0 0 0 0 0 0 0 0 0 0 0 0 0 0 0 0 0 0 0 0 0 0 0 0 0 0 0 0 0 0 0
0 0 0 0 0 0 0 0 0 0 0 0 0 0 0 0 0 0 0 0 0 0 0 0 0 0 0 0 0 0 0 0 0 0 0 0 0 0 0 0 0 0 0
0 0 0 0 0 0 0 0 0 0 0 0 0 0 0 0 0 0 0 0 0 0 0 0 0 0 0 0 0 0 0 0 0 0 0 0 0 0 0 0 0 0 0
0 0 0 0 0 0 0 0 0 0 0 0 0 0 0 0 0 0 0 0 0 0 0 0 0 0 0 0 0 0 0 0 0 0 0 0 0 0 0 0 0 0 0
0 0 0 0 0 0 0 0 0 0 0 0 0 0 0 0 0 0 0 0 0 0 0 0 0 0 0 0 0 0 0 0 0 0 0 0 0 0 0 0 0 0 0
0 0 0 0 0 0 0 0 0 0 0 0 0 0 0 0 0 0 0 0 0 0 0 0 0 0 0 0 0 0 0 0 0 0 0 0 0 0 0 0 0 0 0
0 0 0 0 0 0 0 0 0 0 0 0 0 0 0 0 0 0 0 0 0 0 0 0 0 0 0 0 0 0 0 0 0 0 0 0 0 0 0 0 0 0 0
0 0 0 0 0 0 0 0 0 0 0 0 0 0 0 0 0 0 0 0 0 0 0 0 0 0 0 0 0 0 0 0 0 0 0 0 0 0 0 0 0 0 0
0 0 0 0 0 0 0 0 0 0 0 0 0 0 0 0 0 0 0 0 0 0 0 0 0 0 0 0 0 0 0 0 0 0 0 0 0 0 0 0 0 0 0
0 0 0 0 0 0 0 0 0 0 0 0 0 0 0 0 0 0 0 0 0 0 0 0 0 0 0 0 0 0 0 0 0 0 0 0 0 0 0 0 0 0 0
0 0 0 0 0 0 0 0 0 0 0 0 0 0 0 0 0 0 0 0 0 0 0 0 0 0 0 0 0 0 0 0 0 0 0 0 0 0 0 0 0 0 0
0 0 0 0 0 0 0 0 0 0 0 0 0 0 0 0 0 0 0 0 0 0 0 0 0 0 0 0 0 0 0 0 0 0 0 0 0 0 0 0 0 0 0
Wind_Speed
9 6 5 5 5 5 6 7 8 8 7 7 7 6 6 5 5 6 7 8 7 8 7 5 5 6 5 5 6 5 6 5 5 5 6 6 6 4 7 9 9 9 9
9 7 6 6 6 6 7 8 8 9 8 7 6 6 6 5 5 4 6 7 8 7 7 7 5 5 4 6 6 5 4 4 5 4 5 5 5 4 10 8 6 8 7
12 8 7 7 7 7 7 8 9 10 10 9 8 7 5 5 4 4 4 6 7 7 6 7 5 5 5 4 5 5 5 4 5 4 3 4 5 8 5 6 8 7 7
13 10 8 7 7 7 7 8 9 9 8 7 7 7 6 5 4 3 3 5 7 7 6 5 5 5 4 5 5 5 4 5 5 4 3 4 6 6 7 5 5 9 10
14 11 9 8 7 7 7 7 8 9 9 8 8 8 6 5 4 4 5 5 5 6 6 5 4 4 4 5 5 5 5 3 4 4 5 6 6 6 8 11 7 6 6
14 12 9 9 8 7 7 7 9 9 9 9 8 8 8 7 6 6 4 4 3 4 5 5 5 4 3 4 4 4 5 4 5 4 4 5 5 6 7 13 14 10 6
14 13 10 9 8 7 7 7 9 9 8 9 8 8 8 8 7 5 5 4 3 3 4 5 4 4 4 4 4 4 5 6 6 6 5 5 5 6 7 11 14 14 9
13 12 10 9 9 8 8 8 8 9 8 8 8 7 7 5 4 5 4 4 3 3 4 5 5 5 5 6 5 4 5 6 6 8 7 6 6 6 7 8 11 16 14
13 12 11 10 9 8 8 8 9 9 8 7 7 7 6 6 5 5 5 3 3 3 5 5 5 6 6 6 6 4 6 7 6 7 7 7 6 6 6 6 6 11 18
14 13 11 10 9 8 9 8 8 8 8 7 6 6 6 5 5 5 5 4 4 4 5 5 5 6 6 6 6 6 7 8 7 7 8 8 7 6 6 6 6 7 11
14 12 11 10 9 9 8 8 8 8 7 7 6 7 5 5 5 4 4 4 4 5 5 5 6 6 6 6 6 7 9 8 8 9 11 11 10 8 6 6 6 6 8
12 12 11 11 10 9 8 8 8 7 7 7 7 6 5 4 5 4 4 4 4 5 5 5 6 7 7 7 7 9 9 8 9 11 12 13 12 11 8 7 7 7 7
13 11 11 10 10 9 8 8 8 7 7 6 6 5 5 5 4 4 4 4 5 5 5 5 6 7 7 8 8 9 7 7 10 12 13 14 13 13 9 8 8 7 10
13 12 10 10 9 9 8 9 8 7 7 6 6 5 4 4 4 4 4 5 5 5 6 6 6 7 8 8 9 7 7 8 9 11 13 14 14 13 11 11 9 10 11
12 12 11 9 9 9 8 9 8 7 7 6 6 5 3 3 3 4 4 5 5 7 6 6 7 7 8 8 10 9 10 8 10 11 13 14 19 23 19 16 12 12 12
11 11 11 10 10 9 9 9 8 7 6 6 5 4 2 2 3 3 4 5 6 6 6 7 7 8 9 18 23 18 9 8 10 13 13 14 16 19 25 28 28 25 18
10 10 10 10 9 9 9 9 8 7 6 6 4 3 2 2 3 4 5 6 6 6 7 7 7 8 11 22 23 23 13 8 9 12 13 14 15 21 13 20 25 21 26
10 9 9 10 10 9 9 9 8 7 6 5 3 2 1 2 3 4 5 6 5 6 6 7 8 8 13 22 23 24 12 8 9 11 13 14 13 16 21 17 16 15 15
9 9 10 11 10 10 10 9 8 6 5 4 3 2 2 3 4 5 6 6 6 6 7 7 8 9 11 19 23 23 8 8 9 11 13 16 15 24 30 21 18 18 14
10 11 11 12 11 9 9 8 7 6 5 4 2 2 2 3 4 5 6 5 6 7 8 8 8 9 9 18 23 23 7 9 10 11 12 19 23 28 31 21 18 17 14
11 11 11 10 9 8 8 8 6 5 5 3 1 2 3 3 5 5 5 6 6 7 7 9 8 8 11 17 22 24 12 10 12 12 12 12 27 31 33 28 14 20 23
10 10 10 9 7 7 8 7 6 5 4 2 1 2 3 4 4 5 5 6 6 7 7 7 8 6 8 14 19 25 23 22 15 14 12 15 30 33 31 22 23 30 24
8 9 10 9 7 6 6 7 6 5 3 1 2 3 4 4 4 5 6 6 6 5 6 6 8 7 6 10 21 24 26 27 17 13 23 29 31 27 17 21 28 23 12
8 9 9 8 6 5 6 6 5 4 2 2 3 3 4 5 5 4 4 5 5 5 6 7 8 8 7 6 8 9 12 18 16 13 18 24 23 19 20 19 15 11 11
6 7 7 8 7 6 6 5 4 3 2 3 3 4 4 5 5 5 5 6 5 8 11 7 7 8 9 13 25 20 14 14 15 18 10 8 10 10 11 11 10 10 12
6 7 7 8 7 6 5 5 4 3 2 2 3 3 3 4 5 6 7 11 13 19 20 20 18 13 18 26 27 28 29 29 28 18 10 11 11 12 13 13 13 13 12
Wind_Direction
116 125 132 118 92 82 94 103 106 104 100 100 98 93 87 77 66 62 61 56 50 47 43 31 29 20 13 18 11 2 348 341 337 329 316 292 298 329 359 345 334 329 334
126 130 125 108 99 93 90 91 92 92 91 93 94 98 98 91 85 70 61 59 52 44 45 36 27 19 15 20 7 5 353 339 345 337 327 328 319 358 341 307 316 322 323
138 137 114 96 87 82 84 90 91 93 96 99 101 104 97 96 86 81 74 65 60 47 40 39 29 18 22 17 2 12 0 337 333 352 344 333 310 315 276 333 312 307 325
137 132 122 109 97 88 85 91 97 102 109 113 110 109 105 103 103 104 100 91 75 58 34 37 31 24 26 19 359 4 346 345 331 331 337 303 298 303 302 297 302 316 309
135 131 127 119 104 91 86 86 85 82 80 80 86 94 96 100 91 79 67 81 79 66 34 29 25 29 28 9 351 350 344 338 329 321 313 308 302 290 300 300 294 290 289
131 125 120 114 106 97 90 88 86 80 76 77 77 84 87 81 75 67 55 54 65 58 32 20 16 22 16 350 337 346 334 316 305 299 296 293 292 300 298 298 302 298 290
135 135 136 132 127 119 113 106 101 93 84 81 76 73 77 76 67 62 56 51 42 35 16 12 3 3 354 341 340 339 316 302 297 289 284 283 283 286 290 294 299 299 296
142 145 145 139 135 133 127 115 107 100 92 87 84 77 73 74 69 61 57 54 46 27 5 1 357 354 347 340 335 320 306 305 298 301 298 292 287 284 285 292 301 303 302
149 151 146 140 139 138 127 119 112 106 101 95 90 82 77 75 67 63 54 41 26 14 4 356 353 343 336 331 327 314 308 304 299 296 292 288 282 279 279 284 291 298 303
154 152 147 141 141 132 125 122 117 111 101 92 90 89 76 71 68 62 48 27 12 7 354 350 344 334 328 326 322 314 308 306 302 299 295 293 290 284 281 278 278 278 289
156 151 146 141 133 126 126 121 116 112 109 106 94 84 72 58 61 59 41 18 4 357 348 340 334 327 323 323 319 314 310 304 306 308 306 300 298 293 287 284 281 279 283
150 147 143 137 135 137 134 129 124 115 108 103 98 91 77 55 48 44 28 11 356 343 334 331 327 322 320 316 310 308 306 309 317 313 307 304 304 299 294 288 284 287 288
148 146 144 145 148 147 140 133 123 118 112 106 102 93 75 55 37 26 14 356 340 328 324 325 319 313 308 305 301 298 305 320 313 307 306 306 303 299 294 292 292 291 294
152 150 150 152 151 146 139 130 122 117 110 99 92 82 67 53 29 13 355 337 324 318 315 310 305 301 299 298 296 303 314 305 302 304 303 301 298 297 297 297 288 291 293
156 156 155 153 147 141 134 126 121 115 113 107 100 87 59 41 20 357 335 320 313 311 303 301 299 297 300 302 311 313 308 305 305 302 299 297 300 303 304 303 302 301 298
158 154 153 148 146 141 133 124 119 117 115 112 104 93 53 26 0 328 312 304 301 298 300 300 299 302 310 315 314 314 307 302 304 304 302 300 300 302 308 309 306 304 305
151 151 149 144 140 134 127 124 120 117 112 106 102 91 48 359 330 315 310 304 303 305 307 304 305 305 307 313 313 315 314 303 300 301 304 307 307 311 302 300 305 307 305
138 137 133 128 123 118 116 113 116 115 112 113 116 104 39 335 322 314 309 307 307 307 304 303 302 300 302 312 315 316 313 294 293 298 301 302 304 304 305 304 308 304 300
118 117 116 116 113 113 115 116 117 117 120 119 103 70 13 327 315 309 307 307 307 304 299 297 298 296 301 313 316 316 303 298 297 300 304 306 304 304 310 313 308 304 302
99 106 109 110 111 115 119 121 124 127 123 109 83 24 333 312 303 302 304 302 302 297 299 299 297 299 303 314 319 321 308 308 308 306 304 307 309 310 313 313 309 310 307
100 105 109 111 116 120 121 120 121 118 109 96 57 323 310 305 300 300 296 296 297 298 300 301 302 305 312 321 324 323 322 316 315 314 312 308 311 313 314 317 314 310 315
108 110 110 109 110 115 118 118 116 110 105 102 301 298 305 307 307 301 298 299 301 301 302 307 309 308 316 323 322 323 324 324 318 313 310 308 312 316 320 323 317 319 324
115 114 115 113 107 107 114 118 114 109 102 34 321 319 319 308 304 303 302 302 299 299 306 311 312 313 312 315 319 320 321 321 319 309 310 314 318 324 325 319 321 324 318
120 122 122 121 116 106 98 106 110 106 83 359 336 325 315 309 308 302 297 297 301 303 304 305 307 306 303 301 302 305 313 319 316 308 310 318 322 323 321 320 318 313 309
123 125 129 130 130 127 116 111 108 93 48 359 333 320 316 314 307 300 295 303 289 301 311 303 300 306 309 311 319 324 322 320 315 321 320 319 320 319 316 315 314 314 316
123 122 123 125 128 128 124 117 104 81 38 344 327 323 320 312 306 306 308 309 312 317 320 320 318 315 315 319 324 326 325 325 327 332 327 321 318 317 318 318 318 318 317